Showing default

LEMUR 2 LIA-MARTIN, 63248

Orbit data source: Space-Track

LEMUR 2 LIA-MARTIN, 63248 is a payload satellite owned by Spire (US) in SSO that was launched on Sat, 15 Mar 2025 UTC via an FALCON 9 launch vehicle from the Air Force Western Test Range (AFWTR). Payload-class satellites include a variety of spacecraft equipped with specific instruments for various scientific and technological missions. These include communications satellites like Starlink; space stations such as the ISS; scientific satellites like the Hubble; Earth observation satellites from companies like Planet Labs, Umbra, and HawkEye 360; GPS; miniature CubeSats for education and research; and military/defense satellites.

Loading next visibility...
Identifier
63248, 2025-052AQ
Orbit
SSO
Country
Flag of USUS
Related business
Manufacturer
Spire/Glasgow
Mission
Operational Commercial Com/MetRO
Bus & Motor
CUBESAT 6U, Unknown motor
Mass
10 kg wet, 10 kg dry
Launch date (UTC)
Icon of a cake. It is the launch day of the satellite!2025-03-15 (1 year ago)
Launch vehicle
FALCON 9
Launch site
Air Force Western Test Range (AFWTR)
Object type
Payload
Rocket body
Debris
Shape & HBR
Box, 0.2 m
Radar Cross Section
0.080 m², Small (<0.1 m²)

Expand to show TLE details & history
Last TLE update: 11 hours ago

TLE from 11 hours ago
0 LEMUR 2 LIA-MARTIN
1 63248U 25052AQ  26074.51924147  .00006400  00000-0  56247-3 0  9996
2 63248  97.7010 328.3876 0004598 121.4082 238.7590 14.96889246 54662
Epoch: 2026-03-15T12:27Z
TLE epoch observation values (Epoch: 2026-03-15T12:27:42.463Z)
Latitude
0.00002°
Longitude
-31.66424°
Altitude
581.225 km
Speed
7.569 km/s
True Right ascension
21h 53m 33s
True Declination
0° 00' 00"
Sunlit
Object was in daylight at epoch
Visualization orbit readout
Latitude
Unknown
Longitude
Unknown
Altitude
Unknown
Speed
Unknown
Apparent Right ascension
Unknown
Apparent Declination
Unknown
Sunlit
N/A
Visualization observer readout
Local Sidereal Time
04:02:24
Azimuth
Unknown
Elevation
Unknown
Doppler factor
Unknown
Orbital elements
Apogee altitude
576.721 km
Perigee altitude
570.328 km
Semi-major axis
6,951.661 km
Eccentricity
0.00046
Inclination
97.701°
RAAN
328.3876°
Arg. of periapsis
121.4082°
True anomaly
238.71396°
Mean anomaly
238.759°
Eccentric anomaly
238.73648°
Mean motion
3.74464 °/min
Orbital period
96.14 mins
BSTAR
0.00056247
Loading maneuver chart data...
Computing Atmospheric mass density...
Loading historical data...
Loading historical data...
Loading historical data...
Loading historical data...
Loading historical data...
Loading historical data...
Loading historical data...

Documentation

Showing up to 5 results
|